カタログに戻る

STARLINK-32292

運用中通信VLEO
NORAD 61889·PAYLOAD·🇺🇸 United States

打ち上げ Nov 9, 2024 から Vandenberg Space Force Base

Loading…

次のパス (今後24時間)

TLE

最新Source: CelesTrak SupGP

元期: Sep 15, 2026, 02:15 UTC

1 61889C 24204R   26258.09423611  .00062164  00000+0  18364-2 0  2583
2 61889  53.1579 323.1173 0001199  95.6940 328.7450 15.34363980    19

AllMySatでSTARLINK-32292をリアルタイム追跡

Download on the App Store